Weather in Chinchurino

Russia / Republic of Tatarstan     54°58′58″N   48°40′29″E
temp.,
°C
wind,
m/s
gust,
m/s
humid.,
%
clouds,
%
prec.,
mm/h
press.,
hPa
HPBL,
m
6 march, sat
sat600:00−12wsw44920 0.0 101052
03:00−11wsw479543 0.1 1011142
06:00−11w5109578 0.1 1012228
09:00−12wnw6109282 0.1 1014330
12:00−11wnw46890 0.0 1015322
15:00−10w35900 0.0 1014204
18:00−14sw34900 0.0 101441
21:00−15wsw34870 0.0 101423
7 march, sun
sun700:00−16w239335 0.0 101320
03:00−15wsw239753 0.1 101321
06:00−16wsw239778 0.1 101220
09:00−14wsw359677 0.1 1012142
12:00−11sw459375 0.0 1010269
15:00−9ssw489281 0.0 1008407
18:00−8s6128889 0.0 1006342
21:00−8s7139295 0.1 1003604
8 march, mon
mon800:00−7s91694100 1.2 998814
03:00−5ssw91694100 2.7 996854
06:00−8wsw7148994 0.4 995641
09:00−9sw8168587 0.4 997568
12:00−5sw7137691 0.0 998893
15:00−5sw7128996 0.1 996867
18:00−8sw478791 0.5 996114
21:00−8w5109488 0.6 998218
9 march, tue
tue900:00−10wsw6139086 0.1 1000311
03:00−11wsw6129393 0.1 1001349
06:00−11w61094100 0.3 1003340
09:00−11wnw6109395 0.4 1005361
12:00−10wnw588988 0.0 1008604
15:00−10wnw478894 0.1 1009692
18:00−12nw369491 0.1 1010159
21:00−13wnw489595 0.3 1012233
10 march, wed
wed1000:00−14wnw479595 0.1 1012179
03:00−15wnw489596 0.2 1013204
06:00−19wnw589789 0.1 1014165
09:00−19wnw579690 0.1 1014258
12:00−17wnw579290 0.0 1015343
15:00−17wnw469093 0.0 1015493
18:00−21nw349660 0.0 101740
21:00−23nw349630 0.0 101835